Key West, FL

7:23 AM EDT on June 23, 2017 (GMT -0400)
Key West High School WeatherSTEM | | Change Station

Elev 0 ft 24.55 °N, 81.78 °W | Updated 1 minute ago

Overcast
Overcast
83.2 °F
Feels Like 92 °F
N
0.0
Wind Variable Wind from ESE

Today
High -- | Low -- °F
--% Chance of Precip.
Yesterday
High -- | Low -- °F
Precip. -- in
Pressure 29.99 in
Visibility 10.0 miles
Clouds Few 2100 ft
Scattered Clouds 2500 ft
Mostly Cloudy 7000 ft
Heat Index 92 °F
Dew Point 77 °F
Humidity 81%
Rainfall 0.00 in
Snow Depth Not available.
6:39 AM 8:19 PM
Waning Crescent, 1% visible
METAR KEYW 231053Z 12011KT 10SM -RA FEW021 SCT025 BKN070 28/24 A2999 RMK AO2 RAB43 SLP155 P0000 T02780244
Pressure 29.99 in
Visibility 10.0 miles
Clouds Few 2100 ft
Scattered Clouds 2500 ft
Mostly Cloudy 7000 ft
Heat Index 92 °F
Dew Point 77 °F
Humidity 81%
Rainfall 0.00 in
Snow Depth Not available.
6:39 AM 8:19 PM
Waning Crescent, 1% visible
METAR KEYW 231053Z 12011KT 10SM -RA FEW021 SCT025 BKN070 28/24 A2999 RMK AO2 RAB43 SLP155 P0000 T02780244

Get Severe Weather Alerts

Thanks for signing up!

Be on the lookout for a verification email in your inbox.

You'll start receiving the daily forecast at 6 AM.

×

10-Day Weather Forecast

Almanac

Astronomy

Jun. 23, 2017 Rise Set
Actual Time
Civil Twilight
Nautical Twilight
Astronomical Twilight
Moon
Length of Visible Light
Length of Day
Tomorrow will be .
, % of the Moon is Illuminated

Today's Extremes

State Highs State Lows

Community

WunderPhotos

Category 6

Welcome to Category 6. This is the collective home for Weather Underground's featured writeups by Dr. Jeff Masters (right), Bob Henson (left), Chris Burt, and other regular contributors.

Nearby

Air Quality

  Air Quality AQ Index Pollutant
Not available.

Snow Depth

Station Depth Elevation

Earthquake Activity

City Distance Mag. Time & Date
Minimum magnitude displayed is 2.5.

Coastal Water Temperatures

Place Temperature

Stations

Nearby Weather Stations

Station Location Temp. Windchill Dew Point Humidity Wind Precip. Elev Updated Type
                   

Watches & Warnings

There are currently no watches in effect.